Wind_Speed
3 3 2 3 3 4 6 7 9 9 9 10 10 10 11 12 11 11 10 11 11 11 11 10 10 9 8 8 7 6 6 6 5 6 5 5 5 5 4 4 4 4 5 4 4 4 5 6 6
3 3 3 3 2 3 5 8 10 10 10 10 10 9 10 11 10 10 10 10 10 11 11 10 9 9 9 8 8 7 6 6 5 6 6 5 5 5 4 5 5 4 4 5 5 5 5 5 5
4 3 3 2 2 3 4 8 10 11 11 11 11 10 10 10 10 10 10 10 10 10 10 9 9 9 9 8 8 8 7 6 6 5 6 6 5 5 5 5 6 5 4 5 5 5 5 5 6
5 3 2 2 2 3 4 7 10 11 11 11 11 11 11 11 10 10 10 10 10 10 9 9 9 9 8 8 8 8 7 7 6 5 5 6 5 5 6 6 6 6 6 6 6 6 6 5 6
5 4 3 2 2 2 2 6 9 12 12 12 12 12 12 11 11 10 10 10 10 10 9 9 9 8 8 7 7 7 7 7 6 5 5 6 6 6 5 6 6 6 6 6 6 7 7 6 6
6 4 3 2 0 1 3 5 8 11 12 13 13 14 13 12 11 10 11 10 10 10 10 10 9 8 8 8 7 8 8 7 7 7 6 6 6 6 6 6 5 5 6 6 6 6 6 5 6
7 5 4 2 0 2 3 5 9 12 12 13 14 15 14 12 11 10 10 10 10 10 10 10 9 8 8 8 8 7 8 7 7 7 7 7 7 7 6 6 6 5 5 5 5 6 6 6 5
7 7 5 3 2 1 1 5 10 12 12 13 14 15 14 14 11 11 11 10 10 10 10 10 10 9 8 8 8 7 7 7 7 7 7 7 7 7 7 6 5 5 5 5 5 5 6 5 5
9 7 7 5 4 3 3 6 10 12 13 14 15 16 15 13 12 12 11 11 10 10 10 10 10 10 10 9 8 7 7 7 7 8 8 8 8 7 7 6 6 6 6 5 5 5 4 4 3
11 10 9 7 6 5 5 7 11 12 14 14 15 14 12 13 13 12 11 11 10 10 10 10 10 10 10 10 9 8 8 8 8 8 8 8 8 7 7 7 6 6 6 6 6 6 5 4 3
12 12 11 10 8 7 6 9 13 14 14 15 15 14 12 12 13 13 12 13 12 11 11 10 10 10 9 9 8 8 8 8 8 8 9 9 8 7 7 7 7 7 8 7 6 6 5 4 3
13 12 12 11 10 9 9 10 13 14 14 14 15 14 14 13 13 14 14 13 12 12 12 11 10 10 9 8 8 9 9 8 8 9 9 8 8 8 8 8 8 7 6 6 5 5 5 5 3
14 13 12 11 11 10 9 11 12 14 14 14 15 16 14 13 13 13 13 13 12 12 12 12 10 10 9 9 9 10 10 9 9 9 9 9 8 8 7 8 8 7 5 4 3 3 3 4 3
14 14 13 12 12 11 11 12 12 14 14 14 15 15 14 13 14 13 13 13 13 12 12 12 11 11 10 9 10 10 9 9 9 9 9 9 9 8 8 7 6 5 4 3 1 1 2 3 3
14 14 13 12 11 11 12 13 12 13 14 15 14 15 15 14 14 13 13 13 13 13 12 12 11 11 11 10 10 9 9 8 9 9 9 9 9 8 7 5 5 4 3 2 1 1 2 3 3
14 13 12 12 11 10 12 12 12 13 14 15 15 14 15 15 15 14 13 13 14 12 12 12 12 12 11 10 10 10 9 8 9 9 9 9 9 8 7 5 4 4 3 2 2 3 3 4 4
12 12 12 13 12 11 11 11 12 14 14 14 15 15 15 15 16 15 14 14 12 12 12 12 13 12 12 11 11 10 9 10 10 10 10 10 10 8 7 6 5 4 4 3 3 4 5 5 4
12 12 12 12 11 11 11 10 11 13 15 15 15 15 14 14 15 16 16 15 13 12 12 12 13 13 13 12 12 11 11 12 12 11 10 11 11 9 8 7 5 5 5 4 4 4 5 6 6
14 13 12 11 11 12 12 12 13 14 15 16 16 15 14 14 15 17 18 15 13 13 13 13 13 13 13 13 13 13 13 12 12 12 11 11 11 10 10 8 7 7 6 5 5 5 5 6 6
15 14 13 13 12 13 14 13 14 15 16 16 16 16 16 17 17 18 18 15 14 14 14 13 14 14 14 14 14 14 13 12 12 12 12 11 11 10 9 8 8 8 8 7 7 6 6 6 6
15 15 13 13 11 12 14 14 16 16 16 15 17 18 18 19 18 18 17 16 14 14 14 14 14 15 15 15 14 13 13 13 12 13 13 13 11 10 10 9 9 9 9 9 8 8 7 7 7
16 15 15 16 15 15 16 17 16 16 16 17 18 19 18 18 17 17 17 16 15 14 14 14 14 15 15 15 15 14 14 13 12 13 12 13 13 12 11 11 11 10 10 10 9 9 8 8 8
16 16 16 17 17 17 17 19 17 17 16 17 18 18 19 19 18 17 16 16 15 15 15 14 13 14 15 15 14 14 13 13 12 12 12 13 12 12 12 12 11 11 11 11 11 10 10 10 10
17 17 18 18 19 19 18 19 18 16 16 17 18 19 19 19 18 17 15 15 15 15 15 15 15 14 14 14 14 14 13 12 12 13 13 13 12 12 12 13 12 12 12 12 12 12 11 11 11
18 18 18 19 20 19 18 20 17 16 17 17 18 19 19 17 17 16 15 15 15 16 16 16 16 15 15 14 15 14 14 13 13 14 14 13 13 12 12 12 13 12 12 12 12 12 12 12 12
17 18 19 19 19 20 20 20 17 16 16 17 17 18 18 19 18 18 17 17 18 17 17 16 16 16 16 15 15 15 15 15 14 14 14 14 13 13 13 12 12 12 12 12 12 12 13 13 13
16 17 17 19 19 20 21 21 20 19 17 17 18 18 19 18 18 18 17 18 18 19 18 17 17 17 17 17 16 16 15 15 15 15 14 14 14 14 13 13 13 13 14 13 13 13 13 13 13
16 16 17 18 20 21 21 21 19 19 19 19 19 18 18 19 19 19 19 19 19 19 19 19 20 19 18 18 18 18 17 17 16 15 14 14 14 15 15 14 14 14 15 15 14 15 14 14 14
16 16 18 19 20 21 21 20 19 20 21 21 20 20 20 20 19 19 19 19 19 20 20 20 20 19 19 18 19 18 18 17 17 17 16 16 16 16 16 16 15 15 15 16 17 17 17 17 16
18 18 19 21 22 22 23 22 20 20 20 22 22 22 22 22 21 20 19 19 20 21 21 20 20 20 19 19 19 19 18 18 18 18 17 17 17 17 17 17 17 16 17 17 17 18 18 17 18
Wind_Direction
155 150 133 105 99 89 77 46 30 23 16 6 358 352 352 357 359 359 359 360 6 8 7 5 3 4 2 358 352 346 335 324 318 313 309 306 302 301 293 293 288 277 268 260 248 252 255 255 254
172 155 120 95 92 82 66 30 12 12 14 9 358 353 352 353 355 354 355 358 6 6 6 3 1 1 359 357 354 350 341 336 330 321 313 311 309 309 303 297 287 281 266 261 264 260 261 263 260
178 160 117 103 76 55 37 18 7 4 8 4 355 353 352 349 353 355 355 359 3 3 2 2 1 1 359 356 354 352 346 337 331 327 319 311 311 312 307 299 294 291 279 270 269 269 264 264 259
192 174 153 123 79 48 23 12 6 358 359 357 352 350 349 350 351 353 352 356 359 358 358 360 360 359 358 356 355 352 348 340 330 325 319 314 311 310 311 308 297 290 289 282 271 268 262 264 258
201 196 178 155 43 35 14 2 352 342 350 353 348 344 347 353 349 353 355 357 358 357 356 356 358 356 357 356 354 351 349 346 341 330 325 320 314 311 309 309 307 300 292 286 271 269 262 265 259
210 200 184 161 350 292 324 345 335 328 338 342 337 338 342 347 347 350 352 355 358 357 356 355 354 354 359 359 353 349 347 348 344 338 335 327 324 321 321 313 304 298 291 282 278 279 268 266 256
217 196 177 175 236 258 314 327 312 322 330 330 328 329 333 339 343 347 347 351 358 354 352 353 353 355 355 356 352 349 345 343 343 338 334 330 328 323 320 317 310 297 287 283 287 283 279 269 254
215 200 196 203 197 269 319 302 307 312 320 322 323 326 328 331 335 339 343 347 351 355 354 353 352 349 348 347 345 344 344 343 341 340 336 333 328 322 319 318 314 308 297 291 293 287 285 277 260
215 210 212 225 234 274 280 293 297 303 313 315 318 324 325 328 328 334 338 340 344 348 351 352 349 347 346 344 341 341 341 340 339 342 339 332 324 318 315 315 314 311 305 298 295 284 279 273 257
214 213 218 230 243 268 279 286 292 300 312 314 318 324 325 328 327 330 332 336 342 340 346 349 347 347 347 345 342 340 337 334 334 334 334 329 322 316 312 311 313 308 300 291 284 276 264 257 242
216 211 216 223 239 262 276 287 291 302 309 314 314 319 324 327 328 331 330 334 340 339 340 344 343 343 344 344 343 338 334 330 331 330 329 326 319 313 308 308 309 305 299 290 281 267 260 251 236
220 219 221 225 242 256 269 280 287 297 304 310 312 316 321 324 325 326 327 328 331 335 335 336 338 338 337 336 336 335 330 327 328 330 332 328 319 311 307 305 306 306 303 299 286 266 254 242 231
223 220 227 236 245 249 259 270 279 288 294 301 306 315 316 318 320 320 324 324 325 328 330 333 331 331 333 331 331 330 329 328 327 327 330 326 323 317 312 312 308 305 309 310 298 256 239 234 226
226 226 229 234 241 247 256 266 273 284 291 297 302 309 309 311 313 315 317 318 322 322 324 326 327 329 329 327 326 325 324 324 324 325 325 324 323 323 317 310 307 306 311 322 316 226 213 215 211
229 232 234 242 247 253 260 265 272 279 288 294 299 304 307 311 310 311 315 316 321 318 318 322 326 327 328 325 321 322 323 321 320 323 326 323 325 325 316 310 311 307 302 306 258 251 219 212 214
233 235 236 239 244 251 259 263 267 277 286 292 297 304 309 312 312 307 311 313 316 314 316 320 324 326 325 323 319 318 319 317 317 317 318 317 319 321 319 314 313 313 298 286 258 251 230 222 217
228 234 237 239 245 251 264 266 267 278 287 292 296 301 308 313 313 309 309 312 311 311 311 314 319 322 323 320 315 313 313 313 311 312 310 312 313 309 313 310 305 304 296 282 268 246 232 231 227
226 230 234 236 242 251 264 271 274 286 288 293 296 298 304 306 306 308 308 309 305 305 307 310 315 317 319 318 314 310 308 310 308 307 303 304 306 302 301 295 285 279 286 283 274 259 245 241 237
225 229 233 233 241 255 262 269 278 286 289 291 294 297 300 301 303 305 305 307 304 304 306 307 310 309 312 312 311 305 302 302 303 305 301 297 298 298 296 285 279 273 273 274 278 269 251 242 239
227 230 230 228 242 256 259 261 267 272 279 283 291 296 298 297 299 300 300 301 303 302 301 302 304 305 306 308 310 305 299 297 297 295 295 293 297 296 292 283 274 271 271 271 275 271 261 251 245
227 233 235 236 247 257 262 263 268 268 275 282 286 293 296 299 299 301 303 307 305 301 300 301 298 302 303 304 306 305 301 296 293 294 294 295 294 291 285 283 273 267 266 266 267 266 262 258 254
230 233 240 241 246 250 257 262 264 269 273 280 286 291 299 302 301 301 302 301 304 300 296 295 295 298 301 303 302 301 299 292 290 291 291 292 290 288 284 278 274 269 265 263 260 260 262 261 262
230 235 241 244 245 248 255 261 262 267 271 280 287 292 298 302 299 296 298 299 296 295 294 291 293 295 297 299 299 298 296 292 291 289 289 289 285 284 281 276 272 270 268 261 255 258 258 255 258
233 237 242 245 247 249 254 262 264 264 267 276 285 291 295 298 299 297 296 294 293 294 295 296 295 295 295 296 295 295 292 293 293 288 285 284 280 276 275 271 272 269 266 263 255 255 256 253 255
236 240 243 245 248 250 257 262 263 263 267 275 283 288 290 294 298 294 290 289 288 290 294 296 296 295 293 292 293 292 292 290 290 289 284 280 278 276 273 270 266 267 266 264 256 252 255 254 255
239 243 247 251 251 254 258 263 268 268 273 279 282 285 287 292 294 295 293 294 292 290 291 292 294 293 290 289 291 291 292 289 285 286 283 279 274 274 273 271 266 262 262 260 257 254 254 257 257
238 243 250 255 256 259 260 265 269 270 271 276 282 285 286 292 294 294 295 295 296 295 293 293 294 292 287 285 286 286 286 286 285 284 281 278 278 274 271 269 265 262 261 260 257 257 258 258 259
242 246 251 255 260 265 264 267 270 269 271 279 282 288 293 295 294 292 293 295 295 296 295 291 292 290 285 281 280 280 280 281 284 281 279 276 275 274 275 271 264 262 261 259 259 259 262 261 262
242 248 254 259 263 266 269 271 276 276 275 280 286 289 292 294 293 291 292 293 294 294 294 294 292 290 285 282 278 277 278 279 280 280 278 275 273 273 273 272 265 262 260 259 260 260 263 263 261
249 252 256 260 265 267 271 273 275 279 281 282 287 288 290 290 290 291 290 292 294 294 292 292 291 288 285 284 280 277 277 278 279 278 275 276 276 275 271 270 265 261 260 261 261 260 262 262 261
Height
5912 5912 5912 5913 5913 5911 5909 5910 5910 5910 5911 5910 5908 5906 5904 5903 5903 5903 5900 5897 5895 5894 5893 5891 5890 5889 5888 5886 5885 5884 5884 5882 5882 5881 5880 5880 5879 5878 5877 5876 5875 5875 5874 5873 5874 5873 5873 5873 5873
5912 5911 5912 5913 5912 5910 5910 5909 5909 5909 5910 5909 5908 5907 5905 5904 5902 5900 5898 5897 5895 5894 5893 5891 5890 5889 5888 5886 5885 5884 5883 5882 5881 5880 5880 5879 5878 5877 5876 5876 5875 5873 5873 5873 5873 5872 5872 5872 5872
5911 5911 5912 5912 5911 5910 5910 5909 5909 5908 5908 5909 5908 5907 5906 5904 5902 5900 5898 5896 5895 5894 5892 5891 5890 5889 5887 5886 5885 5884 5883 5882 5881 5880 5879 5878 5877 5877 5876 5875 5874 5873 5872 5872 5872 5872 5871 5871 5871
5911 5912 5912 5912 5911 5910 5909 5909 5908 5908 5908 5908 5907 5906 5905 5904 5902 5899 5897 5896 5895 5893 5892 5891 5889 5888 5887 5886 5885 5883 5882 5881 5880 5879 5878 5877 5877 5876 5875 5874 5873 5872 5872 5871 5871 5871 5870 5870 5870
5911 5911 5912 5911 5910 5910 5908 5908 5907 5908 5907 5907 5907 5905 5904 5903 5900 5899 5897 5896 5894 5893 5892 5890 5889 5888 5887 5885 5884 5883 5882 5880 5879 5878 5877 5877 5876 5875 5874 5873 5872 5871 5871 5870 5870 5869 5868 5868 5868
5911 5911 5911 5910 5910 5909 5908 5907 5907 5907 5907 5907 5906 5905 5903 5902 5900 5898 5896 5895 5894 5893 5892 5890 5889 5887 5886 5885 5884 5882 5881 5880 5879 5878 5877 5876 5875 5874 5873 5872 5871 5870 5869 5869 5868 5867 5867 5867 5867
5910 5910 5910 5910 5909 5908 5908 5907 5907 5906 5906 5906 5905 5904 5902 5901 5900 5898 5896 5894 5893 5892 5891 5890 5889 5887 5886 5884 5883 5882 5881 5879 5878 5877 5876 5875 5874 5873 5872 5871 5870 5869 5868 5867 5867 5866 5866 5865 5865
5908 5909 5909 5909 5908 5907 5907 5906 5906 5906 5905 5904 5903 5902 5901 5900 5899 5897 5896 5894 5893 5892 5891 5890 5888 5887 5885 5884 5883 5881 5880 5879 5878 5876 5875 5874 5873 5872 5871 5869 5868 5867 5867 5866 5865 5865 5864 5864 5864
5906 5908 5907 5907 5907 5906 5906 5905 5905 5904 5904 5903 5902 5901 5900 5898 5898 5896 5895 5893 5892 5890 5889 5889 5887 5886 5884 5883 5882 5880 5879 5878 5877 5875 5874 5873 5872 5870 5869 5868 5867 5866 5865 5864 5863 5863 5863 5862 5862
5904 5905 5905 5905 5906 5905 5904 5904 5904 5903 5903 5902 5901 5899 5898 5897 5896 5895 5894 5893 5891 5890 5889 5887 5886 5885 5884 5882 5881 5879 5878 5877 5876 5874 5873 5872 5871 5869 5867 5866 5865 5864 5863 5861 5861 5861 5861 5861 5861
5902 5903 5903 5903 5903 5903 5903 5903 5903 5902 5902 5901 5900 5899 5897 5896 5895 5894 5893 5892 5891 5890 5888 5886 5885 5884 5882 5881 5880 5879 5877 5876 5875 5873 5872 5871 5869 5867 5866 5865 5863 5862 5860 5858 5858 5858 5859 5860 5860
5900 5901 5901 5901 5902 5902 5902 5902 5901 5901 5901 5900 5899 5897 5895 5894 5894 5893 5892 5890 5889 5888 5886 5885 5883 5882 5881 5880 5878 5877 5876 5874 5873 5872 5870 5869 5867 5866 5864 5863 5861 5860 5858 5856 5855 5856 5857 5859 5859
5897 5898 5899 5899 5900 5900 5900 5900 5900 5899 5899 5898 5897 5895 5894 5893 5892 5892 5890 5889 5887 5886 5885 5883 5881 5880 5879 5878 5876 5875 5874 5872 5871 5870 5869 5867 5866 5864 5862 5860 5859 5858 5856 5854 5853 5853 5855 5857 5858
5895 5896 5896 5897 5898 5898 5898 5899 5898 5898 5897 5897 5895 5894 5893 5892 5891 5890 5889 5888 5886 5884 5883 5882 5879 5878 5877 5876 5875 5873 5871 5870 5869 5869 5867 5866 5864 5862 5860 5858 5857 5856 5855 5854 5854 5854 5855 5857 5858
5892 5893 5894 5895 5896 5896 5897 5897 5896 5895 5895 5895 5894 5892 5891 5890 5888 5887 5886 5885 5884 5883 5881 5880 5878 5876 5875 5874 5873 5871 5869 5868 5867 5867 5866 5864 5863 5861 5859 5857 5856 5856 5856 5855 5855 5855 5856 5857 5858
5890 5891 5892 5893 5894 5894 5895 5894 5894 5893 5892 5892 5891 5890 5889 5888 5886 5885 5884 5883 5882 5880 5879 5878 5876 5875 5873 5872 5871 5869 5867 5866 5865 5864 5864 5863 5861 5860 5858 5857 5856 5856 5856 5856 5856 5856 5857 5857 5857
5887 5888 5890 5891 5891 5891 5891 5891 5891 5890 5890 5889 5889 5888 5887 5885 5883 5882 5881 5880 5879 5878 5876 5875 5874 5872 5871 5869 5868 5866 5865 5864 5863 5862 5861 5861 5860 5859 5858 5857 5856 5856 5856 5855 5855 5855 5856 5856 5857
5884 5885 5886 5887 5888 5888 5888 5889 5889 5888 5887 5887 5886 5885 5884 5883 5881 5879 5878 5877 5876 5875 5874 5872 5871 5869 5868 5867 5865 5864 5863 5862 5860 5859 5859 5858 5858 5857 5856 5856 5855 5855 5855 5855 5855 5854 5855 5855 5855
5881 5882 5883 5884 5885 5885 5885 5886 5886 5885 5884 5883 5883 5882 5881 5880 5878 5877 5875 5873 5873 5872 5870 5869 5868 5866 5865 5864 5863 5861 5860 5859 5857 5857 5856 5856 5855 5854 5854 5854 5854 5853 5853 5853 5853 5853 5854 5854 5854
5878 5879 5880 5881 5881 5881 5882 5882 5882 5882 5881 5880 5879 5879 5879 5877 5875 5874 5872 5870 5869 5868 5867 5866 5865 5864 5863 5861 5860 5858 5857 5856 5855 5854 5853 5853 5853 5852 5852 5852 5851 5851 5851 5851 5852 5852 5852 5852 5853
5875 5876 5877 5877 5877 5878 5878 5878 5878 5878 5878 5877 5876 5875 5875 5873 5871 5870 5869 5867 5866 5865 5864 5863 5862 5861 5860 5858 5856 5855 5854 5853 5852 5850 5850 5849 5849 5849 5849 5849 5849 5849 5849 5849 5849 5849 5850 5850 5851
5871 5873 5873 5874 5874 5874 5875 5875 5874 5874 5874 5874 5873 5872 5871 5869 5867 5867 5866 5865 5863 5862 5861 5860 5859 5858 5856 5855 5853 5851 5850 5850 5849 5847 5847 5846 5845 5845 5846 5846 5846 5846 5846 5847 5847 5847 5847 5848 5849
5868 5869 5870 5870 5870 5871 5871 5870 5871 5870 5870 5870 5869 5869 5868 5866 5864 5863 5862 5861 5860 5859 5857 5856 5855 5854 5853 5851 5849 5848 5847 5846 5845 5844 5844 5843 5842 5842 5842 5842 5842 5842 5843 5843 5844 5844 5845 5845 5846
5864 5865 5866 5866 5866 5867 5867 5866 5866 5866 5866 5866 5865 5864 5863 5862 5859 5857 5857 5857 5856 5855 5853 5852 5850 5849 5848 5847 5846 5844 5843 5842 5841 5841 5840 5840 5839 5839 5839 5839 5839 5839 5839 5840 5841 5841 5842 5842 5843
5860 5861 5862 5862 5862 5862 5863 5861 5863 5862 5862 5861 5861 5859 5858 5857 5856 5853 5853 5852 5852 5850 5849 5848 5846 5845 5844 5843 5841 5839 5839 5838 5837 5837 5836 5836 5835 5835 5835 5835 5835 5835 5836 5836 5837 5838 5838 5839 5840
5856 5857 5858 5858 5858 5858 5858 5857 5858 5858 5857 5856 5856 5855 5854 5853 5852 5851 5850 5849 5847 5845 5844 5843 5842 5841 5840 5839 5837 5836 5835 5834 5833 5832 5832 5831 5831 5831 5831 5831 5831 5832 5832 5833 5833 5834 5835 5836 5836
5852 5852 5853 5854 5854 5854 5853 5853 5853 5852 5852 5852 5851 5850 5849 5848 5847 5847 5845 5844 5843 5841 5840 5838 5837 5836 5835 5834 5833 5832 5831 5830 5829 5828 5828 5827 5827 5827 5827 5827 5827 5828 5828 5828 5829 5829 5830 5831 5832
5848 5849 5849 5849 5849 5848 5849 5849 5849 5848 5848 5847 5847 5846 5845 5844 5843 5842 5841 5840 5838 5837 5835 5833 5832 5830 5829 5829 5828 5827 5826 5826 5825 5824 5823 5823 5822 5822 5822 5822 5823 5823 5823 5824 5824 5825 5826 5827 5827
5844 5845 5844 5845 5844 5844 5843 5846 5845 5844 5843 5842 5842 5842 5841 5840 5839 5837 5836 5834 5833 5832 5830 5828 5826 5824 5823 5823 5823 5822 5821 5820 5820 5819 5818 5818 5817 5817 5817 5817 5818 5818 5818 5819 5820 5821 5822 5822 5823
5839 5839 5840 5840 5840 5839 5839 5842 5840 5839 5838 5837 5837 5836 5836 5834 5834 5832 5831 5829 5828 5826 5824 5823 5821 5819 5818 5817 5817 5816 5816 5815 5815 5814 5813 5813 5812 5812 5812 5812 5813 5813 5814 5815 5815 5815 5816 5816 5817